Regional Weather Roundup
Issued by NWS

Home | Current Version | Previous Version | Graphics & Text | Print | Product List | Glossary On
Versions: 1 2 3 4 5 6 7 8 9 10 11 12 13 14 15 16 17 18 19 20 21 22 23 24 25 26 27 28 29 30 31 32 33 34 35 36 37 38 39 40 41 42 43 44 45 46 47 48 49 50
000
ASUS43 KLOT 290803
RWRIL

ILLINOIS REGIONAL WEATHER ROUNDUP
NATIONAL WEATHER SERVICE CHICAGO/ROMEOVILLE IL
300 AM CDT FRI JUL 29 2016

NOTE: "FAIR" INDICATES FEW OR NO CLOUDS BELOW 12,000 FEET WITH NO
SIGNIFICANT WEATHER AND/OR OBSTRUCTIONS TO VISIBILITY.

* THESE STATIONS ARE NOT UNDER NWS QUALITY CONTROL. THEY ALSO MAY NOT
  REPORT WEATHER SUCH AS PRECIPITATION OR FOG.

ILZ001-002-007-009-015-016-024-290900-
NORTHWEST ILLINOIS

CITY           SKY/WX    TMP DP  RH WIND       PRES   REMARKS
MOLINE         CLOUDY    70  67  90 W5        29.91S
STERLING*      FOG       69  68  96 NE8       29.92F VSB 1/4
SAVANNA*       CLOUDY    69  67  93 NE5       29.92F
$$

ILZ003-004-008-010-011-017-018-290900-
NORTH CENTRAL ILLINOIS

CITY           SKY/WX    TMP DP  RH WIND       PRES   REMARKS
ROCKFORD       CLOUDY    69  65  86 NE12      29.95S FOG
FREEPORT*      CLOUDY    66  65  96 NE8       29.96S
ROCHELLE*      CLOUDY    68  67  99 NE8       29.94S FOG
DE KALB*       FOG       68  68  99 N5        29.95S VSB 3/4
$$

ILZ005-006-012>014-019>023-290900-
NORTHEAST ILLINOIS

CITY           SKY/WX    TMP DP  RH WIND       PRES   REMARKS
CHICAGO-OHARE  CLOUDY    70  68  93 NE7       29.91F
CHICAGO-MIDWAY PTCLDY    72  68  87 N7        29.91S
AURORA         CLOUDY    71  69  93 N7        29.93R FOG
LANSING*       MOCLDY    70  67  88 CALM      29.91F
WAUKEGAN       MOCLDY    69  68  96 N6        29.92F
DUPAGE AIRPORT CLOUDY    70  68  93 NE5       29.92S FOG
KANKAKEE*      FOG       70  69  97 CALM      29.90F VSB<1/4
WHEELING       CLOUDY    70  68  93 N5        29.93F
MORRIS*        CLOUDY    69  68  96 CALM      29.91S FOG
NORTHERLY ISL    N/A     71  69  93 N6          N/A
$$

LMZ740>746-290900-
SOUTHERN LAKE MICHIGAN

STATION/POSITION SKY/WX   TEMP    WIND        PRES    VSBY  WAVE
                          AIR SEA DIR/SP/G                  HT/PER
                          (F)     (DEG/KT/KT) (MB)    (MI)  (FT/S)
SOUTHERN BUOY              74 75   70/ 10/ 10 1013.0          3/ 6
WILMETTE HARBOR            74 72   60/  4/ 10   N/A           3/ 6
HARRISON CRIB              72     340/  9/ 10   N/A
BURNHAM HARBOR             71     340/  3/  7   N/A
CALUMET HARBOR             71     330/  4/ 10 1012.6R
BURNS HARBOR               72      30/  4/  8 1013.2S
MICHIGAN CITY              71      20/  3/  4   N/A
MICHIGAN CITY 6N           74 77   50/  4/  8   N/A           2/ 6
ST. JOSEPH                 71 77   60/  4/  6 1012.7S         2
$$

ILZ025>027-034>036-040-047-049-050-058-095>099-290900-
WEST-CENTRAL ILLINOIS

CITY           SKY/WX    TMP DP  RH WIND       PRES   REMARKS
QUINCY         CLEAR     67  67 100 NW6       29.94S
GALESBURG*     CLEAR     65  64  97 CALM      29.92F
MACOMB*        CLEAR     65  65  97 W6        29.94F
JACKSONVILLE*  CLEAR     67  65  95 CALM      29.92F
PITTSFIELD*    PTCLDY    69  66  93 CALM      29.93F
$$

ILZ028>032-037-038-041>044-048-051>054-059>061-290900-
CENTRAL ILLINOIS

CITY           SKY/WX    TMP DP  RH WIND       PRES   REMARKS
PONTIAC        CLEAR     68  68 100 CALM      29.92S FOG
BLOOMINGTON    CLEAR     70  69  97 W6        29.92F
DECATUR        CLEAR     71  68  90 CALM      29.91S
PEORIA         PTCLDY    69  68  96 CALM      29.91S
LACON*         CLEAR     67  66  96 CALM      29.90S
LINCOLN*       PTCLDY    69  69  99 CALM      29.91F
SPRINGFIELD    CLEAR     69  67  93 SW3       29.92S
TAYLORVILLE    CLEAR     70  68  95 MISG      29.92S
$$

ILZ033-039-045-046-055>057-062-063-290900-
EAST-CENTRAL ILLINOIS

CITY           SKY/WX    TMP DP  RH WIND       PRES   REMARKS
CHAMPAIGN      FOG       68  67  96 CALM      29.91S VSB 1/4
MATTOON        CLEAR     69  67  93 SW3       29.90F
PARIS*         CLEAR     68  68 100 CALM      29.91S
$$

ILZ079-100>102-290900-
SOUTHWEST ILLINOIS

CITY           SKY/WX    TMP DP  RH WIND       PRES   REMARKS
ALTON          MOCLDY    72  70  93 CALM      29.92F
CAHOKIA*       MOCLDY    76  70  82 N5        29.91F
SPARTA*        CLOUDY    74  73  94 NW5       29.92F
$$

ILZ064>066-069>071-074>076-080>082-084>086-088>090-092>094-290900-
SOUTH-CENTRAL ILLINOIS

CITY           SKY/WX    TMP DP  RH WIND       PRES   REMARKS
CARBONDALE     CLEAR     72  70  93 S3        29.90F
CAIRO*         MOCLDY    73  73  98 S3        29.91R
EFFINGHAM*     PTCLDY    68  68 100 CALM      29.93S FOG
MARION         PTCLDY    72  72 100 CALM      29.91F
MT. VERNON     CLEAR     70  64  83 MISG      29.90F
CENTRALIA*     CLEAR     69  69 100 CALM      29.90F
SALEM*         CLEAR     69  68  95 CALM      29.91S FOG
METROPOLIS*    PTCLDY    73  72  97 CALM      29.91F
$$

ILZ067-068-072-073-078-083-087-091-290900-
SOUTHEAST ILLINOIS

CITY           SKY/WX    TMP DP  RH WIND       PRES   REMARKS
LAWRENCEVILLE  CLEAR     69  69 100 SW5       29.91R
FLORA*         CLEAR     72  71  97 CALM      29.91S
FAIRFIELD*     CLEAR     69  69 100 CALM      29.89F FOG
HARRISBURG*    MOCLDY    72  72  99 CALM      29.91S
ROBINSON*      CLEAR     67  67  99 CALM      29.91S
CARMI*         CLEAR     70  70 100 SW5       29.90S FOG
$$

ABBREVIATIONS USED IN REMARKS
   TC - TEMPERATURE IN CELSIUS
  WCI - WIND CHILL INDEX
   HX - HEAT INDEX
  VSB - VISIBILITY
$$





USA.gov is the U.S. government's official web portal to all federal, state and local government web resources and services.